SCP
2 2 2 2 2 2 2 2 2 1 1 1 2 2 2 1 1 1 1 1 1 0 0 0 0 0 0 0 0 0 0 0 0 1 1 1 1 1
2 2 2 2 2 2 2 2 2 1 1 2 2 2 2 1 1 1 1 1 1 0 0 0 0 0 0 0 0 0 0 0 0 0 1 1 1 1
2 3 3 2 2 3 3 3 3 2 2 2 2 2 2 1 1 1 1 1 1 0 0 0 0 0 0 0 0 0 0 0 0 0 0 0 0 0
2 2 3 3 3 3 4 3 3 2 2 2 2 2 1 1 1 1 1 1 1 0 0 0 0 0 0 0 0 0 0 0 0 0 0 0 0 0
2 2 2 2 3 3 3 3 3 3 3 2 2 1 1 1 1 1 1 1 1 0 0 0 0 0 0 0 0 0 0 0 0 0 0 0 0 0
1 1 2 2 2 2 2 2 2 2 2 2 1 1 1 1 1 1 1 1 1 0 0 0 0 0 0 0 0 0 0 0 0 0 0 0 0 0
1 1 1 1 1 1 1 1 1 2 1 1 1 1 1 1 1 1 1 1 1 0 0 0 0 0 0 0 0 0 0 0 0 0 0 0 0 0
1 1 1 1 1 1 1 0 1 1 1 1 1 1 1 2 1 1 1 1 1 0 0 0 0 0 0 0 0 0 0 0 0 0 0 0 0 0
1 1 1 1 0 0 0 0 0 0 0 1 1 1 1 2 2 1 1 1 1 0 0 0 0 0 0 0 0 0 0 0 0 0 0 0 0 0
1 1 1 1 0 0 0 0 1 1 0 0 1 1 1 2 2 2 1 1 1 1 0 0 0 0 0 0 0 0 0 0 0 0 0 0 0 0
1 1 1 1 0 0 1 1 1 1 1 0 0 1 1 1 2 2 1 1 1 1 0 0 0 0 0 0 0 0 0 0 0 0 0 0 0 0
1 1 1 1 0 0 1 1 1 1 1 1 1 1 1 1 1 1 1 1 1 1 0 0 0 0 0 0 0 0 0 0 0 0 0 0 0 0
1 1 1 0 0 0 0 1 1 1 1 1 1 1 1 1 1 1 1 1 1 0 0 0 0 0 0 0 0 0 0 0 0 0 0 0 0 0
1 1 0 0 0 0 0 0 0 0 1 1 2 2 2 1 1 1 0 0 0 0 0 0 0 0 0 0 0 0 0 0 0 0 0 0 0 0
0 0 0 0 0 0 0 0 0 0 0 1 2 2 1 1 0 0 0 0 0 0 0 0 0 0 0 0 0 0 0 0 0 0 0 0 0 0
0 0 0 0 0 0 0 0 0 0 0 1 1 1 1 0 0 0 0 0 0 0 0 0 0 0 0 0 0 0 0 0 0 0 0 0 0 0
0 0 0 0 0 0 0 0 0 0 0 0 0 0 0 0 0 0 0 0 0 0 0 0 0 0 0 0 0 0 0 0 0 0 0 0 0 0
0 0 0 0 0 0 0 0 0 0 0 0 0 0 0 0 0 0 0 0 0 0 0 0 0 0 0 0 0 0 0 0 0 0 0 0 0 0
0 0 0 0 0 0 0 0 0 0 0 0 0 0 0 0 0 0 0 0 0 0 0 0 0 0 0 0 0 0 0 0 0 0 0 0 0 0
0 0 0 0 0 0 0 0 0 0 0 0 0 0 0 0 0 0 0 0 0 0 0 0 0 0 0 0 0 0 0 0 0 0 0 0 0 0
0 0 0 0 0 0 0 0 0 0 0 0 0 0 0 0 0 0 0 0 0 0 0 0 0 0 0 0 0 0 0 0 0 0 0 0 0 0
0 0 0 0 0 0 0 0 0 0 0 0 0 0 0 0 0 0 0 0 0 0 0 0 0 0 0 0 0 0 0 0 0 0 0 0 0 0
0 0 0 0 0 0 0 0 0 0 0 0 0 0 0 0 0 0 0 0 0 0 0 0 0 0 0 0 0 0 0 0 0 0 0 0 0 0
Wind_Speed
4 4 3 3 2 2 2 2 3 3 2 2 1 1 3 3 6 5 6 10 10 10 9 9 9 8 8 8 7 7 7 6 6 6 6 6 5 5
3 3 3 2 2 1 1 2 2 3 2 1 1 1 2 4 7 5 7 11 10 10 10 10 9 9 8 8 7 7 7 7 6 6 5 5 5 5
3 2 2 1 1 1 1 1 1 1 2 1 1 2 4 4 4 4 5 4 5 9 10 9 9 9 8 8 8 7 6 6 5 5 5 4 4 4
3 2 2 2 2 2 1 1 1 1 2 3 2 2 3 4 4 4 4 4 4 8 9 9 9 9 9 8 8 7 6 6 5 5 4 4 4 4
2 2 2 2 2 2 1 1 1 1 2 3 3 2 2 3 4 3 4 3 4 6 8 8 9 10 9 9 8 7 6 6 5 4 4 4 4 4
1 1 1 1 2 2 2 1 1 1 2 3 3 3 2 2 3 3 3 2 3 5 6 6 8 9 9 9 8 7 6 5 5 4 4 3 3 3
1 1 1 1 2 1 1 1 1 2 2 3 3 3 2 2 3 3 4 3 3 3 4 4 4 4 4 6 7 7 6 5 5 3 2 1 1 2
2 2 2 3 4 4 4 5 3 2 3 3 3 3 3 2 2 3 3 4 3 2 3 3 3 3 3 3 5 6 6 5 4 3 2 1 1 1
2 2 2 3 3 3 4 6 6 6 4 3 4 3 3 3 3 4 3 3 3 3 3 3 3 3 3 5 9 7 5 4 3 2 1 0 1 2
3 2 3 3 2 3 5 5 5 5 4 3 3 3 3 3 3 4 5 5 4 3 2 2 2 2 3 4 7 7 5 4 3 2 2 2 3 3
3 3 3 3 3 4 5 5 5 5 8 10 9 7 8 7 5 4 4 4 4 3 1 1 2 2 2 3 4 7 6 5 4 4 4 4 5 5
3 3 5 4 4 4 4 5 5 4 5 6 6 6 6 6 5 3 3 4 4 3 1 1 1 1 1 1 2 3 4 5 6 7 6 6 6 3
3 3 3 6 5 4 3 3 4 4 4 5 5 4 4 4 4 4 4 3 3 3 2 2 1 1 1 1 1 2 3 3 4 4 7 8 7 4
3 3 3 5 5 5 4 5 6 4 3 4 4 4 4 4 4 5 5 5 4 4 3 2 2 1 1 1 0 1 1 2 1 2 2 4 6 6
4 6 6 6 5 4 6 6 4 3 3 4 4 3 3 4 4 4 5 4 4 4 4 2 2 2 1 1 0 0 1 1 1 1 1 1 2 3
5 6 6 5 3 4 4 3 2 2 3 3 3 3 3 3 3 3 3 3 3 2 2 3 2 2 1 0 0 0 0 1 0 0 1 2 2 2
4 3 3 3 3 3 3 2 2 2 3 3 3 4 4 3 2 2 2 2 2 2 2 1 1 1 1 0 1 1 1 1 0 0 1 2 2 2
3 3 3 3 3 3 3 3 3 2 2 3 3 3 3 3 2 1 1 2 2 2 2 1 1 0 0 1 1 1 1 1 1 1 2 2 2 2
2 2 3 2 2 3 3 3 3 3 2 3 2 2 2 2 2 2 2 1 1 2 2 1 0 0 0 0 1 2 1 1 1 1 2 2 2 3
1 2 3 2 2 3 3 3 3 3 3 3 2 2 2 2 2 2 2 1 0 1 1 1 0 0 0 1 1 2 4 2 1 1 2 2 3 3
2 2 3 3 3 3 3 3 3 3 3 3 2 2 2 2 1 1 1 0 1 1 1 1 1 2 2 1 1 1 2 5 4 3 2 3 3 3
2 3 3 3 3 3 3 3 3 3 3 2 2 2 1 1 1 1 1 1 0 0 0 1 2 2 1 2 2 2 1 2 5 8 8 6 3 3
2 3 3 3 3 3 3 3 3 3 2 2 2 2 1 1 1 1 1 1 1 1 1 1 1 1 2 2 2 2 2 3 2 2 4 9 13 14
Wind_Direction
235 235 241 252 256 245 226 209 206 219 228 214 163 126 125 120 133 131 126 132 136 136 134 129 126 121 116 112 107 102 97 93 89 83 75 65 55 46
231 237 242 253 263 256 246 249 218 202 207 196 108 93 101 114 116 115 119 126 131 134 134 132 129 126 124 120 116 110 104 99 94 85 77 67 55 42
228 214 217 237 271 271 245 235 229 184 183 183 89 102 96 99 108 107 112 118 129 135 138 137 134 130 126 121 116 109 105 99 91 84 76 67 56 44
228 221 223 219 228 252 249 240 226 210 165 160 134 114 107 121 120 121 123 127 125 126 127 128 126 122 118 114 112 109 102 93 84 77 72 64 55 44
228 226 229 222 239 242 225 225 227 212 151 154 151 131 118 124 118 118 113 112 133 126 122 121 121 118 115 112 109 105 102 97 90 81 73 65 51 35
197 221 240 217 218 231 225 218 206 180 146 144 140 137 128 134 134 143 133 127 126 124 114 116 118 119 117 115 114 110 106 102 96 88 78 72 59 43
74 63 46 85 90 124 189 185 178 159 153 152 144 137 140 151 163 166 151 136 106 111 110 111 116 110 115 123 123 123 118 111 103 93 92 88 65 56
88 73 74 77 90 93 90 83 92 143 161 158 151 146 146 144 144 149 145 146 140 136 128 120 125 119 120 121 134 138 137 131 124 118 107 83 32 343
73 73 78 80 91 109 98 89 75 75 107 142 140 149 152 163 154 144 135 129 124 149 135 126 135 124 130 134 144 142 143 145 147 151 160 195 318 310
73 83 85 75 65 102 104 96 79 59 67 97 114 120 119 136 149 149 139 114 93 93 102 119 138 133 128 138 161 162 168 180 190 205 240 278 287 290
85 71 78 79 67 104 119 112 103 89 71 79 84 92 92 94 104 116 128 135 126 116 94 113 126 121 125 152 181 188 195 206 221 235 250 268 286 298
101 89 72 68 68 87 116 121 119 111 108 98 89 93 98 99 100 108 133 139 129 122 109 109 120 119 129 158 173 186 206 223 233 242 250 263 277 286
108 97 80 76 73 73 92 107 123 123 120 115 110 103 92 84 78 70 70 94 102 93 116 111 103 97 114 136 174 188 197 205 212 234 243 249 258 254
105 105 103 103 89 84 87 97 109 109 117 110 104 100 101 98 89 84 79 75 84 104 122 123 110 109 88 75 114 195 222 216 197 210 221 229 241 251
94 106 119 121 106 94 95 105 115 118 115 112 112 108 103 108 112 104 96 90 83 95 106 99 104 111 90 92 101 189 234 241 200 197 249 237 226 223
116 115 116 108 97 102 114 118 107 98 108 113 119 115 111 112 112 117 122 123 108 94 95 94 95 104 112 317 243 271 281 255 215 177 293 280 261 232
133 144 150 143 129 120 116 103 100 106 102 103 111 116 116 112 114 119 118 111 101 109 118 129 150 140 130 356 359 1 328 331 89 180 282 285 269 244
139 148 144 141 139 139 141 131 119 110 106 108 110 115 119 119 113 101 97 110 115 116 110 114 127 120 3 360 334 328 3 344 325 305 286 293 296 289
138 140 133 134 135 134 129 118 112 109 103 102 103 112 112 107 107 101 80 79 91 113 121 126 136 138 250 242 283 285 279 278 295 302 299 296 290 284
157 128 122 124 118 115 112 107 111 117 112 105 97 96 101 111 112 110 104 76 56 101 112 118 94 34 310 279 244 254 249 242 252 278 289 289 284 282
142 121 119 120 111 105 102 101 102 104 103 104 103 99 99 106 104 110 118 144 250 153 127 124 245 242 241 275 266 240 235 230 230 233 258 276 284 283
121 118 110 110 115 119 125 130 128 127 131 133 126 129 130 129 150 162 171 203 220 198 174 190 221 244 252 268 279 273 253 253 244 248 250 246 251 270
117 120 123 131 136 143 144 150 152 149 151 142 134 139 140 154 199 212 214 214 217 258 229 201 228 253 268 276 284 292 298 284 267 256 256 246 241 247